Home > Weather > Yekaterinburg > Past weeks

Flag for Russia Weather for the Past 2 Weeks in Yekaterinburg, Russia

Now
32 °F

Passing clouds.


Feels Like: 26 °F
Forecast: 31 / 51 °F
Wind: 6 mph from Northeast

Location: Ekaterinburg

Current Time: Apr 29, 2016 at 3:02:10 AM

Latest Report: Apr 29, 2016 at 2:00 AM


Visibility: N/A

Pressure: 30.42 "Hg

Humidity: 87%

Dew Point: 28 °F

Location of YekaterinburgLocation

Historic Weather in Yekaterinburg — Graph

°F

Yekaterinburg Temperature Yesterday

Maximum temperature yesterday: 50 °F (at 2:00 PM)
Minimum temperature yesterday: 34 °F (at 11:30 PM)
Average temperature yesterday: 41 °F

High & Low Weather Summary for the Past Weeks

 TemperatureHumidityPressure
High73 °F (Apr 17, 12:30 PM)100% (Apr 14, 1:30 AM)30.42 "Hg (Apr 14, 1:30 AM)
Low28 °F (Apr 26, 5:30 AM)25% (Apr 17, 5:30 PM)29.56 "Hg (Apr 20, 6:00 PM)
Average50 °F75%29.95 "Hg
* Reported Apr 14 1:00 AM — Apr 29 1:30 AM, Yekaterinburg, Weather by CustomWeather, © 2016

Note: Actual official high and low records may vary slightly from our data, if they occured in-between our weather recording intervals... More about our weather records

Advertising

Yekaterinburg Weather History for the Previous 24 Hours

Scroll right to see more
 ConditionsComfort  
Time TempWeatherWind HumidityBarometerVisibility
1:30 AM
Fri, Apr 29
32 °FPassing clouds.6 mph87%30.42 "HgN/A
1:00 AM34 °FClear.6 mph81%30.42 "Hg10 mi
12:30 AM34 °FClear.8 mph81%30.42 "Hg10 mi
12:00 AM34 °FClear.6 mph81%30.39 "Hg10 mi
11:30 PM
Thu, Apr 28
34 °FClear.8 mph81%30.39 "Hg10 mi
11:00 PM36 °FClear.10 mph81%30.39 "Hg10 mi
10:30 PM36 °FClear.8 mph81%30.39 "Hg10 mi
10:00 PM37 °FClear.10 mph75%30.39 "Hg10 mi
9:30 PM37 °FClear.10 mph75%30.39 "Hg10 mi
9:00 PM39 °FClear.13 mph70%30.36 "Hg10 mi
8:30 PM41 °FSunny.13 mph61%30.36 "Hg10 mi
8:00 PM43 °FSunny.15 mph49%30.36 "Hg10 mi
7:30 PM45 °FSunny.15 mph42%30.33 "Hg10 mi
7:00 PM45 °FSunny.10 mph42%30.33 "Hg10 mi
6:30 PM45 °FPassing clouds.15 mph42%30.33 "HgN/A
6:00 PM45 °FScattered clouds.10 mph42%30.30 "HgN/A
5:30 PM45 °FScattered clouds.15 mph42%30.30 "HgN/A
5:00 PM46 °FScattered clouds.13 mph43%30.30 "HgN/A
4:30 PM45 °FPartly sunny.10 mph53%30.30 "HgN/A
4:00 PM45 °FPartly sunny.10 mph57%30.30 "HgN/A
3:30 PM45 °FPartly sunny.13 mph61%30.30 "HgN/A
3:00 PM45 °FPartly sunny.20 mph61%30.30 "HgN/A
2:30 PM48 °FPartly sunny.13 mph46%30.27 "HgN/A
2:00 PM50 °FPartly sunny.10 mph43%30.27 "HgN/A
1:00 PM46 °FPartly sunny.15 mph50%30.27 "HgN/A
12:30 PM46 °FPartly sunny.13 mph53%30.27 "HgN/A
11:00 AM46 °FPassing clouds.13 mph50%30.24 "HgN/A
10:30 AM46 °FPassing clouds.10 mph53%30.24 "HgN/A
10:00 AM45 °FSunny.10 mph57%30.24 "Hg10 mi
9:00 AM41 °FPassing clouds.8 mph66%30.27 "HgN/A
8:30 AM39 °FPassing clouds.8 mph70%30.27 "HgN/A
8:00 AM37 °FPassing clouds.10 mph75%30.27 "HgN/A
7:00 AM39 °FSunny.8 mph87%30.24 "Hg10 mi
6:30 AM37 °FPassing clouds.8 mph93%30.24 "HgN/A
6:00 AM37 °FScattered clouds.6 mph93%30.24 "HgN/A
5:30 AM37 °FScattered clouds.6 mph93%30.27 "HgN/A
5:00 AM36 °FPassing clouds.3 mph100%30.27 "HgN/A
4:30 AM36 °FPassing clouds.6 mph100%30.27 "HgN/A
3:30 AM36 °FPassing clouds.3 mph100%30.27 "HgN/A
3:00 AM36 °FPartly cloudy.6 mph100%30.27 "HgN/A
Weather by CustomWeather, © 2016

See weather overviewHow to use our weather pages